[[{"header":{"parameterUnit":"m.s-1","parameterCategory":2,"la1":30.2991,"la2":30.254,"lo1":-89.0895,"lo2":-89.0444,"dy":0.0017,"dx":0.0017,"nx":28,"ny":28,"refTime":"2023-09-20T21:00:00:Z","depth":"0","parameterNumber":2,"parameterNumberName":"U-component_of_CURRENTS"},"data":[0,0,0,0,0,0,0,0,0,0,0,0,0,0,0,0,0,0,0,0,0,0,0,0,0,0,0,0,0,0,0,0,0,0,0,0,0,0,0,0,0,0,0,0,0,0,0,0,0,0,0,0,0,0,0,0,0,0,-0.2086,-0.2087,0,-0.2123,-0.2123,-0.2124,-0.2086,-0.2085,-0.2084,-0.2083,-0.2048,-0.2048,-0.2048,0,0,0,0,0,0,0,0,0,0,0,0,0,-0.1976,-0.1978,-0.2086,-0.2087,-0.2088,-0.2123,-0.2123,-0.2124,-0.2086,-0.2085,-0.2084,-0.2082,-0.2048,-0.2048,-0.2048,0,0,0,0,0,0,0,0,0,0,0,0,0,-0.2016,-0.1979,-0.2086,-0.2076,-0.2076,-0.2123,-0.2123,-0.2124,-0.2087,-0.2085,-0.2083,-0.2082,-0.2048,-0.2048,-0.2048,-0.2082,0,0,-0.2049,-0.2049,0,0,0,0,0,0,0,0,-0.2014,-0.2019,-0.2077,-0.2077,-0.2077,-0.2102,-0.2072,-0.2108,-0.2087,-0.2078,-0.2083,-0.2081,-0.2063,-0.2062,-0.2068,-0.208,-0.2079,-0.2049,-0.2049,-0.2049,-0.2049,0,0,0,0,0,0,0,-0.2011,-0.2018,-0.2097,-0.2078,-0.2078,-0.2068,-0.2072,-0.2079,-0.2075,-0.2079,-0.2077,-0.2089,-0.2062,-0.2068,-0.2067,-0.2078,-0.2049,-0.2049,-0.2049,-0.2049,-0.2091,-0.2092,0,0,0,0,0,0,-0.2017,-0.2016,-0.2095,-0.2098,-0.2045,-0.2072,-0.2076,-0.2092,-0.2077,-0.2074,-0.209,-0.2087,-0.2069,-0.2067,-0.2065,-0.209,-0.2049,-0.2049,-0.2049,-0.209,-0.2091,-0.2092,0,0,0,0,0,0,-0.2015,-0.2024,-0.2094,-0.206,-0.2069,-0.2076,-0.2095,-0.2094,-0.2102,-0.2086,-0.2081,-0.2099,-0.2067,-0.2065,-0.2085,-0.2088,-0.2049,-0.2049,-0.2089,-0.209,-0.2092,-0.2148,0,0,0,0,0,0,-0.2012,-0.2023,-0.2036,-0.2061,-0.2071,-0.2137,-0.2097,-0.2096,-0.2113,-0.2109,-0.2093,-0.2088,-0.2066,-0.2085,-0.2085,-0.2088,-0.2049,-0.2088,-0.209,-0.2091,-0.2145,-0.2151,-0.2157,0,0,0,0,0,-0.2008,-0.204,-0.2037,-0.2046,-0.2089,-0.2139,-0.2144,-0.2139,-0.2115,-0.2135,-0.2122,-0.2088,-0.2096,-0.2087,-0.2087,-0.2089,-0.2087,-0.2089,-0.2091,-0.2142,-0.215,-0.2156,0,0,0,0,0,0,-0.2001,-0.2041,-0.2037,-0.2079,-0.2111,-0.2134,-0.2154,-0.215,-0.2157,-0.2145,-0.2117,-0.2113,-0.2124,-0.211,-0.2101,-0.2107,-0.208,-0.2082,-0.2119,-0.2126,-0.2132,-0.2131,-0.2049,0,0,0,0,0,-0.2007,-0.2035,-0.2075,-0.2106,-0.2126,-0.214,-0.2157,-0.2159,-0.2171,-0.2171,-0.2161,-0.2145,-0.2136,-0.2135,-0.2129,-0.2149,-0.2135,-0.2146,-0.2152,-0.2157,-0.2156,-0.2187,-0.2196,-0.21,-0.21,-0.21,0,0,-0.2009,-0.2037,-0.205,-0.2105,-0.2124,-0.2161,-0.2145,-0.2183,-0.2197,-0.2168,-0.2182,-0.2171,-0.2147,-0.2159,-0.2161,-0.2147,-0.2169,-0.216,-0.2164,-0.2161,-0.219,-0.22,-0.2208,-0.2102,-0.2101,-0.2101,0,0,-0.2036,-0.2059,-0.2092,-0.2125,-0.2169,-0.2183,-0.2198,-0.2232,-0.2231,-0.2258,-0.2226,-0.2229,-0.2225,-0.221,-0.2197,-0.2239,-0.2201,-0.2228,-0.2258,-0.2288,-0.2296,-0.2303,-0.2265,-0.2269,-0.223,-0.2231,-0.2231,0,-0.2035,-0.208,-0.2111,-0.2154,-0.2176,-0.2195,-0.2231,-0.2245,-0.2276,-0.2287,-0.2267,-0.2275,-0.2245,-0.2259,-0.2253,-0.2251,-0.2244,-0.2231,-0.2297,-0.2304,-0.231,-0.2269,-0.2272,-0.2234,-0.2233,-0.2233,-0.2233,0,-0.2084,-0.2119,-0.2147,-0.2196,-0.2229,-0.2267,-0.2296,-0.2324,-0.2322,-0.2333,-0.2359,-0.2341,-0.2341,-0.2329,-0.2291,-0.232,-0.2289,-0.2302,-0.2279,-0.2323,-0.2277,-0.2279,-0.2238,-0.2237,-0.2236,-0.2235,0,0,-0.2073,-0.2162,-0.2166,-0.219,-0.225,-0.2282,-0.2321,-0.2366,-0.2397,-0.2413,-0.2448,-0.242,-0.2417,-0.2403,-0.2376,-0.2388,-0.2394,-0.2357,-0.2357,-0.2318,-0.2418,-0.2375,-0.2372,-0.2431,-0.2433,-0.2434,-0.2355,0,-0.2092,-0.2163,-0.2207,-0.226,-0.2294,-0.2333,-0.2373,-0.2414,-0.2441,-0.2485,-0.2478,-0.2495,-0.2444,-0.2444,-0.2451,-0.2404,-0.2408,-0.241,-0.2381,-0.2378,-0.2337,-0.2378,-0.2264,-0.2185,-0.2357,-0.2357,-0.2358,0,-0.2112,-0.2155,-0.221,-0.2288,-0.2309,-0.2339,-0.2407,-0.2453,-0.2521,-0.2543,-0.2576,-0.258,-0.2565,-0.2539,-0.2496,-0.2502,-0.246,-0.2433,-0.2431,-0.2376,-0.2343,-0.2176,-0.2182,-0.2158,-0.2361,-0.236,-0.236,0,-0.2063,-0.2152,-0.2187,-0.2212,-0.2307,-0.233,-0.2377,-0.2457,-0.251,-0.2577,-0.2608,-0.263,-0.2603,-0.2598,-0.2507,-0.251,-0.2469,-0.2472,-0.24,-0.2393,-0.228,-0.2263,-0.2261,-0.2481,-0.2481,-0.2482,-0.2482,0,-0.2057,-0.2086,-0.216,-0.2179,-0.223,-0.23,-0.2373,-0.2429,-0.2524,-0.256,-0.262,-0.2628,-0.2621,-0.2594,-0.254,-0.2452,-0.2492,-0.2403,-0.2388,-0.2292,-0.2277,-0.2239,-0.2252,-0.2479,-0.2479,-0.248,-0.248,0,-0.1998,-0.2056,-0.2097,-0.2179,-0.2207,-0.2234,-0.236,-0.2416,-0.25,-0.2545,-0.256,-0.2607,-0.2556,-0.2553,-0.2506,-0.2458,-0.2365,-0.2383,-0.2233,-0.2205,-0.2125,-0.2145,-0.2116,-0.2062,-0.2289,-0.2287,-0.2286,0,-0.1977,-0.199,-0.2068,-0.2093,-0.2124,-0.2192,-0.2248,-0.2374,-0.2418,-0.2498,-0.2487,-0.2502,-0.2465,-0.2406,-0.2353,-0.2292,-0.2295,-0.2161,-0.2166,-0.2109,-0.2121,-0.2134,-0.2092,-0.2008,-0.2005,-0.2002,-0.2,0,-0.1918,-0.1938,-0.1967,-0.2013,-0.2054,-0.2123,-0.2185,-0.223,-0.2335,-0.2356,-0.2336,-0.2333,-0.2303,-0.2202,-0.2174,-0.2122,-0.2105,-0.2105,-0.2101,-0.1952,-0.1912,-0.1854,-0.2031,-0.1977,-0.1979,-0.1981,-0.1982,-0.1983,-0.1851,-0.1848,-0.1876,-0.191,-0.1962,-0.1987,-0.1988,-0.2046,-0.2073,-0.2054,-0.213,-0.2082,-0.2071,-0.202,-0.198,-0.188,-0.194,-0.1816,-0.1851,-0.1873,-0.1821,-0.1926,-0.1842,-0.1843,-0.1844,-0.1846,-0.1847,0,-0.1761,-0.1762,-0.1781,-0.1805,-0.1803,-0.1865,-0.1892,-0.185,-0.1787,-0.1839,-0.181,-0.1821,-0.1754,-0.1773,-0.1701,-0.1636,-0.1602,-0.1605,-0.159,-0.1564,-0.1682,-0.1671,-0.1481,-0.1481,-0.1481,-0.1481,-0.1481,-0.1481,-0.1711,-0.1679,-0.1681,-0.1619,-0.1635,-0.1566,-0.1538,-0.1466,-0.1463,-0.1421,-0.1452,-0.1547,-0.1571,-0.1676,-0.1583,-0.1512,-0.1486,-0.1434,-0.1485,-0.1565,-0.1587,-0.1608,-0.1601,-0.14,-0.14,-0.1285,-0.1284,-0.1284]},{"header":{"parameterUnit":"m.s-1","parameterCategory":2,"la1":30.2991,"la2":30.254,"lo1":-89.0895,"lo2":-89.0444,"dy":0.0017,"dx":0.0017,"nx":28,"ny":28,"refTime":"2023-09-20T21:00:00:Z","depth":"0","parameterNumber":3,"parameterNumberName":"V-component_of_CURRENTS"},"data":[0,0,0,0,0,0,0,0,0,0,0,0,0,0,0,0,0,0,0,0,0,0,0,0,0,0,0,0,0,0,0,0,0,0,0,0,0,0,0,0,0,0,0,0,0,0,0,0,0,0,0,0,0,0,0,0,0,0,-0.0402,-0.0401,0,-0.0306,-0.0305,-0.0304,-0.0231,-0.023,-0.023,-0.0229,-0.0082,-0.0078,-0.0075,0,0,0,0,0,0,0,0,0,0,0,0,0,-0.046,-0.046,-0.0402,-0.0401,-0.04,-0.0306,-0.0305,-0.0304,-0.0231,-0.023,-0.023,-0.0229,-0.0083,-0.0079,-0.0075,0,0,0,0,0,0,0,0,0,0,0,0,0,-0.0406,-0.046,-0.0402,-0.0353,-0.0348,-0.0307,-0.0305,-0.0303,-0.0231,-0.023,-0.0229,-0.0229,-0.0084,-0.0079,-0.0074,-0.006,0,0,-0.0059,-0.0056,0,0,0,0,0,0,0,0,-0.0409,-0.0404,-0.0362,-0.0357,-0.0351,-0.0281,-0.0271,-0.022,-0.0231,-0.0274,-0.0229,-0.0228,-0.0145,-0.0135,-0.0118,-0.0053,-0.0046,-0.0058,-0.0055,-0.0053,-0.0051,0,0,0,0,0,0,0,-0.0413,-0.0407,-0.0363,-0.036,-0.0354,-0.0315,-0.0307,-0.0261,-0.0214,-0.027,-0.0265,-0.0257,-0.0141,-0.0123,-0.0113,-0.0044,-0.0058,-0.0054,-0.0051,-0.0049,0.0067,0.0067,0,0,0,0,0,0,-0.0431,-0.0411,-0.0366,-0.036,-0.038,-0.0315,-0.0306,-0.0303,-0.0215,-0.0202,-0.0258,-0.0254,-0.0132,-0.012,-0.0108,-0.0072,-0.0053,-0.0048,-0.0045,0.0067,0.0067,0.0067,0,0,0,0,0,0,-0.0433,-0.0429,-0.037,-0.0384,-0.0374,-0.0316,-0.0313,-0.0302,-0.0282,-0.0206,-0.0191,-0.0249,-0.0131,-0.0115,-0.0068,-0.0066,-0.0046,-0.0041,0.0067,0.0067,0.0067,-0.0009,0,0,0,0,0,0,-0.0435,-0.043,-0.0437,-0.0385,-0.0374,-0.0349,-0.0313,-0.03,-0.0279,-0.0272,-0.0194,-0.0179,-0.0129,-0.0076,-0.0063,-0.0059,-0.0037,0.0067,0.0067,0.0067,-0.0007,-0.0012,-0.0016,0,0,0,0,0,-0.0438,-0.0451,-0.0438,-0.0432,-0.0384,-0.035,-0.034,-0.0295,-0.0279,-0.0273,-0.0221,-0.0182,-0.0066,-0.0072,-0.0057,-0.0051,0.0067,0.0067,0.0067,-0.0005,-0.0011,-0.0016,0,0,0,0,0,0,-0.0481,-0.0444,-0.0428,-0.043,-0.0395,-0.0338,-0.0332,-0.0303,-0.0258,-0.0253,-0.0183,-0.0165,-0.0121,-0.0079,-0.0087,-0.0017,0.0008,0.0011,-0.0052,-0.0058,-0.0062,-0.0078,-0.0033,0,0,0,0,0,-0.0496,-0.0495,-0.045,-0.0452,-0.044,-0.0389,-0.0371,-0.034,-0.0294,-0.0274,-0.0219,-0.0161,-0.011,-0.008,-0.0028,0.0006,0.0054,0.0021,0.0016,0.0012,0.001,0.0083,0.0084,0.0067,0.0067,0.0067,0,0,-0.0512,-0.0493,-0.0492,-0.0462,-0.0432,-0.0416,-0.0376,-0.0354,-0.0336,-0.0265,-0.0228,-0.0176,-0.0105,-0.0063,-0.004,-0.0027,0.004,0.0012,0.0007,0.0008,0.0083,0.0085,0.0086,0.0067,0.0067,0.0067,0,0,-0.0545,-0.0531,-0.0539,-0.0512,-0.0476,-0.0444,-0.0442,-0.0388,-0.0361,-0.0322,-0.0266,-0.0218,-0.0141,-0.0089,-0.0054,-0.0055,0.0011,-0.0038,-0.007,-0.0,0.0002,0.0004,0.0055,0.0063,-0.0038,-0.0038,-0.0038,0,-0.0567,-0.0571,-0.0535,-0.0531,-0.0518,-0.0461,-0.0463,-0.0424,-0.0361,-0.0339,-0.0319,-0.0205,-0.0152,-0.0093,-0.0095,-0.0065,-0.002,-0.0057,-0.0007,-0.0004,0.0,0.0053,0.0062,-0.0042,-0.0042,-0.0041,-0.0041,0,-0.0597,-0.0598,-0.0601,-0.0578,-0.056,-0.0552,-0.05,-0.0477,-0.0442,-0.0391,-0.0331,-0.0256,-0.0188,-0.0164,-0.013,-0.0078,-0.0054,-0.0025,0.0003,-0.0003,0.0053,0.0064,-0.0047,-0.0046,-0.0045,-0.0044,0,0,-0.0645,-0.0629,-0.0627,-0.0634,-0.0587,-0.058,-0.0556,-0.0515,-0.0493,-0.0424,-0.0387,-0.0305,-0.0259,-0.0216,-0.0161,-0.0104,-0.0048,-0.0062,-0.0057,-0.002,0.0099,0.013,0.0145,-0.0007,-0.0006,-0.0004,0.0122,0,-0.0678,-0.0699,-0.0674,-0.0688,-0.0695,-0.0646,-0.063,-0.0583,-0.0521,-0.0466,-0.038,-0.0315,-0.0277,-0.0244,-0.0184,-0.0071,-0.002,-0.0085,0.0107,0.0112,0.0135,0.0159,0.0192,0.0309,0.0134,0.0136,0.0137,0,-0.071,-0.0723,-0.0752,-0.0756,-0.0755,-0.0749,-0.0719,-0.0691,-0.0593,-0.0545,-0.0461,-0.0376,-0.0282,-0.0251,-0.0073,-0.0115,-0.0025,0.0058,0.0065,0.0131,0.0165,0.0292,0.0337,0.0473,0.0155,0.0153,0.0152,0,-0.0768,-0.0777,-0.0812,-0.0808,-0.0796,-0.0803,-0.0789,-0.0713,-0.0689,-0.0577,-0.053,-0.0405,-0.0327,-0.0198,-0.0036,-0.0046,0.0162,0.0175,0.0285,0.0288,0.0373,0.038,0.0568,0.029,0.029,0.0289,0.0289,0,-0.0815,-0.0839,-0.0843,-0.0858,-0.0904,-0.0862,-0.0871,-0.0831,-0.0752,-0.0703,-0.0571,-0.0496,-0.0307,-0.0162,-0.0035,0.0165,0.0168,0.0288,0.0331,0.0345,0.0348,0.0516,0.0559,0.0294,0.0293,0.0292,0.0291,0,-0.0869,-0.0869,-0.0914,-0.0924,-0.0933,-0.0961,-0.0948,-0.0939,-0.0844,-0.0771,-0.0736,-0.0549,-0.0347,-0.0161,0.007,0.0179,0.0447,0.0417,0.041,0.0449,0.0668,0.0704,0.0918,0.1004,0.0566,0.0568,0.0569,0,-0.0899,-0.0926,-0.0974,-0.1017,-0.1026,-0.1053,-0.1071,-0.1004,-0.0977,-0.0795,-0.0766,-0.0546,-0.038,-0.0034,0.02,0.0443,0.0534,0.0602,0.0586,0.0697,0.077,0.0784,0.0841,0.0667,0.0669,0.0671,0.0672,0,-0.0955,-0.0971,-0.1013,-0.1109,-0.1152,-0.1186,-0.1188,-0.1172,-0.1058,-0.0954,-0.0776,-0.0617,-0.0266,0.0052,0.0365,0.0501,0.0705,0.0643,0.0782,0.0885,0.0893,0.099,0.0548,0.0688,0.0686,0.0685,0.0684,0.0683,-0.0996,-0.1049,-0.1116,-0.1209,-0.1263,-0.1289,-0.1287,-0.124,-0.1161,-0.0958,-0.0813,-0.0534,-0.0075,0.0388,0.055,0.0898,0.0848,0.0993,0.1033,0.1041,0.1114,0.0689,0.0857,0.0857,0.0856,0.0856,0.0856,0,-0.1052,-0.1118,-0.1213,-0.1318,-0.1394,-0.1386,-0.1351,-0.1288,-0.1165,-0.0958,-0.0756,-0.0227,0.0214,0.0614,0.111,0.1285,0.1319,0.1363,0.1407,0.1452,0.1114,0.1108,0.131,0.131,0.131,0.131,0.131,0.131,-0.1088,-0.1192,-0.1252,-0.1411,-0.1474,-0.1505,-0.1459,-0.1295,-0.112,-0.075,-0.044,-0.0195,0.0392,0.1184,0.1622,0.1647,0.1795,0.1766,0.1852,0.1626,0.1594,0.1564,0.1572,0.1868,0.1868,0.2185,0.2188,0.2191]}],[{"header":{"parameterUnit":"m.s-1","parameterCategory":2,"la1":30.2991,"la2":30.254,"lo1":-89.0895,"lo2":-89.0444,"dy":0.0017,"dx":0.0017,"nx":28,"ny":28,"refTime":"2023-09-20T21:00:00:Z","depth":"2","parameterNumber":2,"parameterNumberName":"U-component_of_CURRENTS"},"data":[0,0,0,0,0,0,0,0,0,0,0,0,0,0,0,0,0,0,0,0,0,0,0,0,0,0,0,0,0,0,0,0,0,0,0,0,0,0,0,0,0,0,0,0,0,0,0,0,0,0,0,0,0,0,0,0,0,0,-0.1705,-0.1705,0,-0.171,-0.1711,-0.1712,-0.1727,-0.1726,-0.1726,-0.1726,-0.1701,-0.1701,-0.17,0,0,0,0,0,0,0,0,0,0,0,0,0,-0.1694,-0.1695,-0.1705,-0.1705,-0.1704,-0.171,-0.1711,-0.1712,-0.1727,-0.1726,-0.1726,-0.1726,-0.1701,-0.1701,-0.17,0,0,0,0,0,0,0,0,0,0,0,0,0,-0.1706,-0.1695,-0.1706,-0.1707,-0.1707,-0.171,-0.1711,-0.1712,-0.1727,-0.1726,-0.1726,-0.1726,-0.1701,-0.1701,-0.17,-0.1706,0,0,-0.1698,-0.1698,0,0,0,0,0,0,0,0,-0.1705,-0.1707,-0.1708,-0.1707,-0.1707,-0.1711,-0.1697,-0.1706,-0.1727,-0.1727,-0.1726,-0.1725,-0.1697,-0.1697,-0.171,-0.1705,-0.1704,-0.1698,-0.1698,-0.1698,-0.1698,0,0,0,0,0,0,0,-0.1704,-0.1707,-0.1715,-0.1707,-0.1706,-0.1702,-0.1704,-0.17,-0.172,-0.1727,-0.1726,-0.1716,-0.1698,-0.171,-0.1709,-0.1703,-0.1698,-0.1698,-0.1697,-0.1697,-0.1699,-0.17,0,0,0,0,0,0,-0.1691,-0.1706,-0.1714,-0.1714,-0.1697,-0.1702,-0.1705,-0.1716,-0.172,-0.1719,-0.1716,-0.1716,-0.1711,-0.1709,-0.1708,-0.1733,-0.1698,-0.1697,-0.1697,-0.1699,-0.1699,-0.17,0,0,0,0,0,0,-0.1691,-0.1693,-0.1714,-0.1703,-0.1705,-0.1702,-0.1715,-0.1716,-0.1737,-0.1711,-0.171,-0.1735,-0.1711,-0.1709,-0.1712,-0.1731,-0.1697,-0.1696,-0.1698,-0.1699,-0.1699,-0.177,0,0,0,0,0,0,-0.1691,-0.1693,-0.1702,-0.1703,-0.1704,-0.1734,-0.1715,-0.1716,-0.1727,-0.1728,-0.1727,-0.1724,-0.171,-0.1713,-0.1711,-0.1729,-0.1696,-0.1698,-0.1699,-0.1699,-0.1767,-0.1773,-0.1778,0,0,0,0,0,-0.1691,-0.1704,-0.1704,-0.1704,-0.1716,-0.1734,-0.1737,-0.1737,-0.1728,-0.1752,-0.174,-0.1724,-0.1716,-0.1713,-0.1711,-0.1729,-0.1697,-0.1698,-0.1699,-0.1765,-0.1772,-0.1778,0,0,0,0,0,0,-0.1697,-0.1706,-0.1706,-0.1719,-0.1732,-0.1735,-0.1742,-0.1746,-0.1758,-0.1751,-0.1734,-0.1731,-0.1735,-0.1722,-0.1719,-0.1729,-0.1702,-0.1703,-0.1753,-0.1759,-0.1764,-0.1827,-0.1696,0,0,0,0,0,-0.1703,-0.1717,-0.1726,-0.1734,-0.1742,-0.1746,-0.1752,-0.1757,-0.1758,-0.1765,-0.1758,-0.1745,-0.1737,-0.1741,-0.1727,-0.1743,-0.1735,-0.175,-0.1755,-0.176,-0.1808,-0.1825,-0.1838,-0.1703,-0.1702,-0.1702,0,0,-0.1699,-0.1707,-0.1711,-0.1736,-0.1741,-0.1761,-0.1752,-0.1766,-0.1784,-0.1757,-0.1776,-0.1759,-0.1741,-0.1752,-0.1754,-0.1748,-0.1779,-0.1761,-0.1766,-0.1812,-0.1828,-0.1841,-0.1853,-0.1703,-0.1703,-0.1703,0,0,-0.1699,-0.1715,-0.173,-0.175,-0.1763,-0.1772,-0.1781,-0.1795,-0.1808,-0.1821,-0.18,-0.1819,-0.1791,-0.1811,-0.1808,-0.184,-0.1798,-0.1806,-0.19,-0.1914,-0.1927,-0.1938,-0.1885,-0.1891,-0.182,-0.182,-0.1821,0,-0.1692,-0.1719,-0.1736,-0.176,-0.1776,-0.178,-0.1808,-0.1822,-0.1834,-0.1873,-0.183,-0.1858,-0.1833,-0.1891,-0.1893,-0.186,-0.1829,-0.1877,-0.1925,-0.1936,-0.1947,-0.189,-0.1896,-0.1824,-0.1824,-0.1823,-0.1823,0,-0.1707,-0.1734,-0.1744,-0.178,-0.1808,-0.1828,-0.1852,-0.1893,-0.1896,-0.192,-0.1973,-0.1952,-0.1984,-0.1963,-0.1935,-0.2001,-0.1938,-0.1921,-0.1917,-0.1965,-0.1901,-0.1905,-0.1829,-0.1828,-0.1827,-0.1826,0,0,-0.1671,-0.1743,-0.1744,-0.1794,-0.1824,-0.1865,-0.1906,-0.1979,-0.2047,-0.2049,-0.2126,-0.2127,-0.2137,-0.2137,-0.2109,-0.2133,-0.2141,-0.2062,-0.2061,-0.2024,-0.2118,-0.2071,-0.2071,-0.2124,-0.2126,-0.2129,-0.2022,0,-0.1675,-0.1734,-0.1769,-0.1842,-0.1881,-0.1936,-0.1991,-0.2063,-0.2102,-0.2173,-0.2196,-0.2228,-0.219,-0.2198,-0.2223,-0.214,-0.2167,-0.2169,-0.2067,-0.2064,-0.2031,-0.2082,-0.1906,-0.1799,-0.2027,-0.2027,-0.2028,0,-0.1672,-0.1722,-0.1777,-0.192,-0.1947,-0.1991,-0.2132,-0.2187,-0.2289,-0.2319,-0.2384,-0.2374,-0.2397,-0.2351,-0.2307,-0.2295,-0.2241,-0.2192,-0.2185,-0.2142,-0.2031,-0.1799,-0.1799,-0.2036,-0.2035,-0.2034,-0.2034,0,-0.1638,-0.1747,-0.18,-0.1832,-0.1963,-0.2032,-0.2116,-0.2235,-0.2304,-0.2403,-0.2414,-0.2478,-0.2428,-0.2422,-0.2307,-0.2297,-0.2241,-0.2202,-0.213,-0.2121,-0.196,-0.1935,-0.2245,-0.2245,-0.2245,-0.2246,-0.2246,0,-0.1621,-0.168,-0.1799,-0.1825,-0.1958,-0.2045,-0.2181,-0.2282,-0.238,-0.2419,-0.2471,-0.2463,-0.2442,-0.2392,-0.2339,-0.2227,-0.2259,-0.2176,-0.2122,-0.1969,-0.1948,-0.2159,-0.215,-0.2242,-0.2242,-0.2243,-0.2244,0,-0.1561,-0.1619,-0.172,-0.187,-0.1931,-0.2027,-0.2205,-0.2273,-0.2364,-0.2392,-0.2401,-0.2418,-0.2334,-0.2321,-0.2259,-0.2208,-0.2155,-0.2132,-0.1927,-0.1856,-0.2008,-0.2004,-0.2023,-0.2021,-0.202,-0.2018,-0.2017,0,-0.1534,-0.1556,-0.1734,-0.1799,-0.1864,-0.2014,-0.2078,-0.2239,-0.226,-0.2328,-0.2279,-0.2273,-0.2212,-0.2126,-0.2075,-0.2013,-0.2097,-0.183,-0.1835,-0.2056,-0.2,-0.1998,-0.1997,-0.1593,-0.1589,-0.1585,-0.1582,0,-0.1475,-0.1525,-0.1601,-0.173,-0.1813,-0.1926,-0.2011,-0.2036,-0.2129,-0.2137,-0.2096,-0.2089,-0.2017,-0.1883,-0.1852,-0.1797,-0.1831,-0.1755,-0.2039,-0.1708,-0.1652,-0.1597,-0.1609,-0.155,-0.1553,-0.1556,-0.1557,-0.1559,-0.1421,-0.1463,-0.1536,-0.1668,-0.1757,-0.1776,-0.1787,-0.1819,-0.1836,-0.1789,-0.186,-0.1782,-0.1775,-0.1639,-0.1566,-0.1516,-0.1642,-0.156,-0.157,-0.1584,-0.1586,-0.1534,-0.1404,-0.1406,-0.1408,-0.141,-0.1412,0,-0.1331,-0.1378,-0.1476,-0.1576,-0.1604,-0.1695,-0.1681,-0.1623,-0.1545,-0.1549,-0.1529,-0.1388,-0.1319,-0.134,-0.121,-0.1199,-0.1177,-0.1152,-0.1111,-0.1143,-0.1172,-0.1153,-0.0856,-0.0854,-0.0853,-0.0852,0,0,-0.1278,-0.13,-0.1356,-0.1384,-0.1452,-0.1369,-0.1326,-0.1255,-0.1218,-0.1147,-0.1123,-0.1221,-0.1276,-0.1055,-0.1011,-0.0911,-0.1015,-0.0865,-0.1305,-0.1286,-0.1313,-0.1397,-0.1403,0,0,0,0,0]},{"header":{"parameterUnit":"m.s-1","parameterCategory":2,"la1":30.2991,"la2":30.254,"lo1":-89.0895,"lo2":-89.0444,"dy":0.0017,"dx":0.0017,"nx":28,"ny":28,"refTime":"2023-09-20T21:00:00:Z","depth":"2","parameterNumber":3,"parameterNumberName":"V-component_of_CURRENTS"},"data":[0,0,0,0,0,0,0,0,0,0,0,0,0,0,0,0,0,0,0,0,0,0,0,0,0,0,0,0,0,0,0,0,0,0,0,0,0,0,0,0,0,0,0,0,0,0,0,0,0,0,0,0,0,0,0,0,0,0,-0.0046,-0.0044,0,0.0063,0.0064,0.0065,0.0093,0.0093,0.0092,0.0092,0.0177,0.0179,0.0182,0,0,0,0,0,0,0,0,0,0,0,0,0,-0.018,-0.0178,-0.0046,-0.0044,-0.0042,0.0063,0.0064,0.0065,0.0093,0.0093,0.0092,0.0092,0.0176,0.0179,0.0182,0,0,0,0,0,0,0,0,0,0,0,0,0,-0.0105,-0.0177,-0.0046,-0.0013,-0.0009,0.0062,0.0064,0.0065,0.0093,0.0093,0.0092,0.0092,0.0175,0.0179,0.0183,0.0218,0,0,0.0194,0.0196,0,0,0,0,0,0,0,0,-0.0109,-0.01,-0.002,-0.0015,-0.0011,0.0067,0.0048,0.0116,0.0093,0.0051,0.0092,0.0091,0.014,0.0147,0.0164,0.0222,0.0225,0.0195,0.0197,0.0199,0.02,0,0,0,0,0,0,0,-0.0114,-0.0104,-0.0006,-0.0018,-0.0012,0.0013,0.0022,0.0061,0.0094,0.0055,0.0058,0.0075,0.0142,0.0161,0.0167,0.0227,0.0195,0.0198,0.0201,0.0202,0.0281,0.0281,0,0,0,0,0,0,-0.0123,-0.0109,-0.0009,-0.0002,-0.0059,0.0016,0.0026,0.004,0.0095,0.0104,0.0075,0.0076,0.0154,0.0162,0.017,0.0172,0.0199,0.0203,0.0205,0.0281,0.0281,0.0281,0,0,0,0,0,0,-0.0126,-0.0115,-0.0014,-0.0051,-0.0036,0.0018,0.0034,0.0042,0.0042,0.0111,0.0119,0.0065,0.0154,0.0164,0.0189,0.0177,0.0204,0.0208,0.0282,0.0281,0.0281,0.0205,0,0,0,0,0,0,-0.0131,-0.0117,-0.0125,-0.0052,-0.0034,0.0006,0.0035,0.0045,0.0057,0.0058,0.0106,0.0114,0.0154,0.0183,0.0193,0.0183,0.0211,0.0282,0.0281,0.0281,0.0208,0.0202,0.0197,0,0,0,0,0,-0.0136,-0.0144,-0.0126,-0.0115,-0.0042,0.0006,0.0016,0.0051,0.0056,0.0049,0.0085,0.0111,0.0187,0.0186,0.0197,0.0189,0.0282,0.0281,0.0281,0.021,0.0203,0.0197,0,0,0,0,0,0,-0.0208,-0.0138,-0.0119,-0.0106,-0.0063,0.0011,0.0007,0.0036,0.0061,0.0052,0.0112,0.0123,0.0142,0.0176,0.0173,0.0211,0.0238,0.0239,0.018,0.0174,0.0169,0.0147,0.0214,0,0,0,0,0,-0.0225,-0.0218,-0.0143,-0.014,-0.0121,-0.0062,-0.0044,-0.0018,0.0025,0.0033,0.0071,0.0111,0.0154,0.0169,0.0209,0.0228,0.0269,0.023,0.0225,0.022,0.0211,0.0277,0.0276,0.0279,0.0279,0.0279,0,0,-0.0253,-0.0215,-0.0211,-0.0156,-0.0123,-0.0095,-0.0055,-0.0038,-0.0017,0.004,0.0056,0.0093,0.0156,0.018,0.019,0.0202,0.0238,0.0219,0.0214,0.0208,0.0276,0.0276,0.0276,0.0278,0.0279,0.0279,0,0,-0.03,-0.0272,-0.0278,-0.0241,-0.0193,-0.0146,-0.0147,-0.0087,-0.0069,-0.004,0.0008,0.0032,0.0093,0.0135,0.0168,0.0156,0.0209,0.0167,0.0121,0.0184,0.0185,0.0186,0.0222,0.0227,0.0161,0.0161,0.0161,0,-0.034,-0.032,-0.0276,-0.0263,-0.0233,-0.0174,-0.0163,-0.0127,-0.007,-0.0064,-0.0051,0.0032,0.0075,0.0122,0.0115,0.0143,0.0181,0.0138,0.0177,0.0179,0.0181,0.0219,0.0225,0.0158,0.0158,0.0158,0.0159,0,-0.0372,-0.0358,-0.036,-0.0316,-0.0288,-0.027,-0.0202,-0.0194,-0.0167,-0.0129,-0.0099,-0.0032,0.0011,0.0033,0.0071,0.0105,0.0127,0.0164,0.019,0.0176,0.0217,0.0224,0.0152,0.0154,0.0155,0.0156,0,0,-0.0442,-0.0393,-0.0392,-0.0388,-0.031,-0.0298,-0.0267,-0.0226,-0.0228,-0.0178,-0.0163,-0.0098,-0.0079,-0.0041,0.0013,0.0064,0.0105,0.0108,0.0114,0.0137,0.0229,0.0251,0.0262,0.0154,0.0155,0.0156,0.0245,0,-0.0476,-0.0476,-0.0428,-0.0427,-0.0416,-0.0354,-0.0343,-0.0309,-0.026,-0.0237,-0.0169,-0.013,-0.0096,-0.0077,-0.0025,0.0088,0.0124,0.0076,0.0245,0.0249,0.0266,0.0271,0.0242,0.032,0.0254,0.0255,0.0256,0,-0.0509,-0.0502,-0.0505,-0.0495,-0.049,-0.0482,-0.0459,-0.0439,-0.038,-0.0348,-0.0293,-0.0223,-0.0143,-0.0105,0.005,0.002,0.0101,0.0183,0.0189,0.0241,0.0286,0.0328,0.0338,0.027,0.0269,0.0268,0.0267,0,-0.0576,-0.0558,-0.057,-0.0554,-0.0527,-0.054,-0.0535,-0.049,-0.0482,-0.0403,-0.0367,-0.0274,-0.0202,-0.0086,0.007,0.0068,0.0248,0.0274,0.0361,0.0363,0.0387,0.0389,0.0365,0.0365,0.0365,0.0365,0.0365,0,-0.061,-0.0625,-0.0614,-0.0617,-0.0674,-0.0628,-0.0667,-0.0642,-0.0588,-0.0565,-0.0437,-0.0369,-0.0189,-0.0055,0.0061,0.0236,0.0242,0.0351,0.0393,0.0357,0.0356,0.0354,0.0352,0.0368,0.0368,0.0367,0.0366,0,-0.0669,-0.0651,-0.0681,-0.0686,-0.0701,-0.0748,-0.076,-0.077,-0.0702,-0.0643,-0.061,-0.043,-0.0245,-0.0069,0.014,0.0237,0.0395,0.0446,0.0376,0.0409,0.0463,0.0456,0.0556,0.0558,0.0559,0.056,0.0561,0,-0.0694,-0.071,-0.0753,-0.0798,-0.0803,-0.0858,-0.0887,-0.0844,-0.0812,-0.0672,-0.0627,-0.0437,-0.0284,0.0022,0.0225,0.0435,0.0433,0.052,0.0511,0.0454,0.0486,0.0476,0.0467,0.0507,0.0507,0.0508,0.0508,0,-0.0741,-0.0761,-0.079,-0.0895,-0.0939,-0.0977,-0.0988,-0.0976,-0.0883,-0.0793,-0.0638,-0.0507,-0.0202,0.0045,0.0315,0.0427,0.0487,0.0535,0.0521,0.0459,0.0415,0.0443,0.0435,0.0511,0.0511,0.0511,0.051,0.051,-0.0786,-0.0833,-0.0893,-0.0995,-0.1057,-0.1074,-0.1075,-0.1023,-0.0961,-0.0787,-0.0671,-0.0446,-0.0206,0.0188,0.0376,0.0544,0.0544,0.0588,0.0584,0.0581,0.0555,0.0516,0.0625,0.0625,0.0625,0.0625,0.0626,0,-0.082,-0.0889,-0.0993,-0.1083,-0.1166,-0.118,-0.1128,-0.1069,-0.0964,-0.0789,-0.0631,-0.0358,-0.0071,0.0168,0.0448,0.0617,0.0593,0.063,0.0575,0.0571,0.0567,0.0539,0.0605,0.0606,0.0606,0.0607,0,0,-0.0842,-0.0935,-0.0996,-0.1157,-0.1241,-0.1254,-0.1217,-0.1085,-0.0932,-0.0742,-0.0577,-0.0361,-0.0058,0.0136,0.0346,0.049,0.0481,0.0491,0.049,0.0395,0.039,0.0526,0.0476,0,0,0,0,0]}],[{"header":{"parameterUnit":"m.s-1","parameterCategory":2,"la1":30.2991,"la2":30.254,"lo1":-89.0895,"lo2":-89.0444,"dy":0.0017,"dx":0.0017,"nx":28,"ny":28,"refTime":"2023-09-20T21:00:00:Z","depth":"4","parameterNumber":2,"parameterNumberName":"U-component_of_CURRENTS"},"data":[0,0,0,0,0,0,0,0,0,0,0,0,0,0,0,0,0,0,0,0,0,0,0,0,0,0,0,0,0,0,0,0,0,0,0,0,0,0,0,0,0,0,0,0,0,0,0,0,0,0,0,0,0,0,0,0,0,0,-0.0891,-0.0892,0,-0.093,-0.093,-0.093,-0.0961,-0.0961,-0.0962,-0.0962,-0.0998,-0.0998,-0.0999,0,0,0,0,0,0,0,0,0,0,0,0,0,-0.0823,-0.0824,-0.0891,-0.0892,-0.0893,-0.093,-0.093,-0.093,-0.0961,-0.0961,-0.0962,-0.0962,-0.0997,-0.0998,-0.0999,0,0,0,0,0,0,0,0,0,0,0,0,0,-0.0855,-0.0825,-0.0891,-0.0913,-0.0916,-0.093,-0.093,-0.0931,-0.0961,-0.0961,-0.0962,-0.0963,-0.0997,-0.0998,-0.0999,-0.099,0,0,-0.1001,-0.1001,0,0,0,0,0,0,0,0,-0.0853,-0.0857,-0.091,-0.0912,-0.0915,-0.0943,-0.0919,-0.0951,-0.096,-0.0942,-0.0962,-0.0963,-0.098,-0.0982,-0.0985,-0.0991,-0.0993,-0.1001,-0.1002,-0.1002,-0.1002,0,0,0,0,0,0,0,-0.0851,-0.0855,-0.0905,-0.091,-0.0913,-0.0915,-0.092,-0.0925,-0.0955,-0.0943,-0.0946,-0.0953,-0.0981,-0.0984,-0.0986,-0.0993,-0.1001,-0.1002,-0.1002,-0.1003,-0.1037,-0.1038,0,0,0,0,0,0,-0.085,-0.0853,-0.0904,-0.0906,-0.0887,-0.0915,-0.0921,-0.0932,-0.0955,-0.096,-0.0952,-0.0954,-0.0983,-0.0985,-0.0988,-0.1025,-0.1002,-0.1003,-0.1003,-0.1037,-0.1037,-0.1038,0,0,0,0,0,0,-0.0848,-0.0854,-0.0902,-0.0882,-0.0888,-0.0916,-0.0927,-0.0932,-0.0952,-0.0962,-0.0967,-0.097,-0.0983,-0.0986,-0.1006,-0.1025,-0.1003,-0.1004,-0.1036,-0.1037,-0.1037,-0.1069,0,0,0,0,0,0,-0.0846,-0.0853,-0.0862,-0.0882,-0.0889,-0.092,-0.0927,-0.0932,-0.0955,-0.0958,-0.0978,-0.0981,-0.0984,-0.1005,-0.1007,-0.1025,-0.1004,-0.1036,-0.1036,-0.1037,-0.1067,-0.1071,-0.1073,0,0,0,0,0,-0.0844,-0.0853,-0.0862,-0.0869,-0.09,-0.0921,-0.0925,-0.0945,-0.0956,-0.0965,-0.098,-0.0982,-0.1012,-0.1006,-0.1008,-0.1027,-0.1035,-0.1036,-0.1037,-0.1066,-0.107,-0.1073,0,0,0,0,0,0,-0.0829,-0.0858,-0.0868,-0.0887,-0.0907,-0.0927,-0.0938,-0.0953,-0.0971,-0.0977,-0.0987,-0.0991,-0.1014,-0.1013,-0.1007,-0.1038,-0.1024,-0.1025,-0.1045,-0.1049,-0.1052,-0.1059,-0.1005,0,0,0,0,0,-0.0829,-0.0846,-0.0871,-0.0887,-0.0897,-0.092,-0.0932,-0.0947,-0.0966,-0.0976,-0.0991,-0.1004,-0.1016,-0.1028,-0.1035,-0.1052,-0.1076,-0.1065,-0.1068,-0.1071,-0.1078,-0.1116,-0.1123,-0.1041,-0.1041,-0.1041,0,0,-0.0828,-0.0846,-0.0856,-0.0885,-0.0901,-0.092,-0.0929,-0.0952,-0.0973,-0.0975,-0.1007,-0.1015,-0.1022,-0.1043,-0.1054,-0.1048,-0.1113,-0.1072,-0.1074,-0.108,-0.1118,-0.1126,-0.1133,-0.1042,-0.1042,-0.1041,0,0,-0.0828,-0.0851,-0.0862,-0.0881,-0.091,-0.0926,-0.0937,-0.0965,-0.0985,-0.1009,-0.1019,-0.104,-0.1057,-0.1071,-0.1077,-0.11,-0.1125,-0.1103,-0.1129,-0.1167,-0.1174,-0.1181,-0.125,-0.1263,-0.1108,-0.1108,-0.1108,0,-0.0824,-0.0846,-0.0868,-0.0884,-0.0904,-0.0931,-0.095,-0.0971,-0.1004,-0.1026,-0.1024,-0.1068,-0.107,-0.1106,-0.1112,-0.1109,-0.1145,-0.1116,-0.1172,-0.1179,-0.1185,-0.1255,-0.1268,-0.1109,-0.1109,-0.1109,-0.1109,0,-0.0829,-0.0853,-0.0862,-0.0894,-0.0918,-0.0939,-0.0973,-0.1002,-0.1027,-0.1051,-0.1095,-0.1102,-0.1132,-0.1134,-0.1129,-0.1178,-0.1197,-0.1171,-0.1165,-0.1196,-0.1267,-0.128,-0.1112,-0.1111,-0.111,-0.111,0,0,-0.08,-0.0855,-0.0859,-0.0885,-0.0928,-0.0951,-0.0989,-0.1036,-0.108,-0.1101,-0.1158,-0.1166,-0.1182,-0.119,-0.1194,-0.1222,-0.13,-0.1219,-0.122,-0.1294,-0.1418,-0.1275,-0.1276,-0.1288,-0.1289,-0.1291,-0.1461,0,-0.0797,-0.083,-0.0862,-0.0906,-0.0928,-0.0975,-0.1016,-0.1063,-0.1108,-0.1169,-0.1188,-0.1237,-0.1201,-0.123,-0.1248,-0.1296,-0.1333,-0.1259,-0.1372,-0.1376,-0.1249,-0.1285,-0.1296,-0.1471,-0.1474,-0.1476,-0.1478,0,-0.0784,-0.0814,-0.0851,-0.0927,-0.0944,-0.0977,-0.1064,-0.1102,-0.1184,-0.1222,-0.1268,-0.1301,-0.1359,-0.1315,-0.1408,-0.1368,-0.1393,-0.1418,-0.1425,-0.1285,-0.1255,-0.1426,-0.1502,-0.15,-0.1499,-0.1497,-0.1495,0,-0.0744,-0.0808,-0.0842,-0.0864,-0.0947,-0.0985,-0.1032,-0.1116,-0.1171,-0.1264,-0.1331,-0.1386,-0.1448,-0.1475,-0.1507,-0.1481,-0.1608,-0.1579,-0.148,-0.1474,-0.1541,-0.1532,-0.1635,-0.1635,-0.1635,-0.1634,-0.1634,0,-0.0719,-0.0749,-0.0832,-0.0849,-0.0912,-0.0973,-0.1051,-0.1108,-0.1209,-0.129,-0.1356,-0.1428,-0.149,-0.1562,-0.1562,-0.1561,-0.1653,-0.1497,-0.1498,-0.1554,-0.1544,-0.1554,-0.1542,-0.1641,-0.1639,-0.1638,-0.1637,0,-0.066,-0.0713,-0.0759,-0.0853,-0.089,-0.0929,-0.1054,-0.1111,-0.1218,-0.1332,-0.1373,-0.1501,-0.158,-0.1627,-0.1702,-0.1637,-0.1646,-0.1616,-0.1712,-0.1714,-0.149,-0.1479,-0.1555,-0.1551,-0.1548,-0.1545,-0.1543,0,-0.0634,-0.0647,-0.0745,-0.0776,-0.082,-0.09,-0.0959,-0.1085,-0.1161,-0.136,-0.1414,-0.1545,-0.1607,-0.1623,-0.1648,-0.1655,-0.1604,-0.1629,-0.1511,-0.1484,-0.1479,-0.1472,-0.1465,-0.1537,-0.1537,-0.1536,-0.1535,0,-0.0578,-0.0611,-0.0645,-0.0696,-0.0762,-0.0853,-0.0957,-0.102,-0.1183,-0.1309,-0.142,-0.146,-0.1546,-0.1559,-0.1565,-0.1553,-0.1622,-0.1594,-0.16,-0.149,-0.1464,-0.146,-0.1457,-0.1523,-0.1525,-0.1526,-0.1527,0,-0.053,-0.0533,-0.0565,-0.0607,-0.0692,-0.0778,-0.0855,-0.0967,-0.1065,-0.13,-0.1328,-0.1444,-0.155,-0.1508,-0.1512,-0.1483,-0.1449,-0.1398,-0.1413,-0.1427,-0.1288,-0.123,-0.1229,0,0,0,0,0,-0.0478,-0.046,-0.0478,-0.0533,-0.0614,-0.0667,-0.0841,-0.0931,-0.1126,-0.1171,-0.1248,-0.1309,-0.1329,-0.1374,-0.1312,-0.1422,-0.1436,-0.1343,-0.1381,-0.146,-0.1473,-0.1311,0,0,0,0,0,0,-0.044,-0.0439,-0.0435,-0.0456,-0.0482,-0.058,-0.0692,-0.0828,-0.0875,-0.1061,-0.1074,-0.1196,-0.1221,-0.1321,-0.1266,-0.1277,-0.127,-0.1403,-0.14,-0.1453,-0.1465,-0.1475,-0.1313,0,0,0,0,0]},{"header":{"parameterUnit":"m.s-1","parameterCategory":2,"la1":30.2991,"la2":30.254,"lo1":-89.0895,"lo2":-89.0444,"dy":0.0017,"dx":0.0017,"nx":28,"ny":28,"refTime":"2023-09-20T21:00:00:Z","depth":"4","parameterNumber":3,"parameterNumberName":"V-component_of_CURRENTS"},"data":[0,0,0,0,0,0,0,0,0,0,0,0,0,0,0,0,0,0,0,0,0,0,0,0,0,0,0,0,0,0,0,0,0,0,0,0,0,0,0,0,0,0,0,0,0,0,0,0,0,0,0,0,0,0,0,0,0,0,0.0073,0.0074,0,0.0118,0.0119,0.0119,0.014,0.014,0.014,0.014,0.0193,0.0194,0.0195,0,0,0,0,0,0,0,0,0,0,0,0,0,0.004,0.004,0.0073,0.0074,0.0074,0.0118,0.0119,0.012,0.014,0.014,0.014,0.014,0.0192,0.0194,0.0196,0,0,0,0,0,0,0,0,0,0,0,0,0,0.0067,0.0041,0.0073,0.009,0.0092,0.0118,0.0119,0.012,0.014,0.014,0.014,0.014,0.0192,0.0194,0.0196,0.021,0,0,0.0202,0.0203,0,0,0,0,0,0,0,0,0.0065,0.0068,0.0087,0.0089,0.0091,0.0124,0.0127,0.015,0.014,0.0122,0.014,0.014,0.017,0.0174,0.0183,0.0213,0.0215,0.0203,0.0204,0.0205,0.0205,0,0,0,0,0,0,0,0.0063,0.0066,0.0091,0.0088,0.009,0.0107,0.0111,0.0131,0.0146,0.0124,0.0125,0.013,0.0171,0.0181,0.0184,0.0216,0.0203,0.0204,0.0206,0.0207,0.0267,0.0267,0,0,0,0,0,0,0.0056,0.0064,0.009,0.0093,0.0078,0.0108,0.0112,0.0113,0.0146,0.0151,0.013,0.0131,0.0177,0.0182,0.0186,0.0208,0.0205,0.0207,0.0208,0.0267,0.0267,0.0267,0,0,0,0,0,0,0.0055,0.0058,0.0088,0.008,0.0085,0.0108,0.011,0.0114,0.0125,0.0151,0.0156,0.0137,0.0177,0.0183,0.0204,0.021,0.0208,0.021,0.0266,0.0267,0.0267,0.0249,0,0,0,0,0,0,0.0054,0.0057,0.0058,0.0079,0.0085,0.01,0.011,0.0115,0.0128,0.013,0.0158,0.0163,0.0178,0.0201,0.0206,0.0213,0.0211,0.0266,0.0267,0.0267,0.0249,0.0249,0.0248,0,0,0,0,0,0.0052,0.0053,0.0058,0.0061,0.0085,0.01,0.0105,0.0122,0.0128,0.0132,0.0152,0.0162,0.0209,0.0203,0.0209,0.0216,0.0266,0.0266,0.0267,0.0249,0.0249,0.0248,0,0,0,0,0,0,0.0043,0.0056,0.0062,0.0067,0.0081,0.0104,0.011,0.0122,0.0141,0.0142,0.0166,0.0173,0.0193,0.0208,0.0201,0.0236,0.0239,0.0241,0.0223,0.0223,0.0223,0.021,0.0213,0,0,0,0,0,0.004,0.0041,0.0059,0.0063,0.0068,0.0089,0.0099,0.0109,0.0128,0.0136,0.0157,0.018,0.0201,0.0214,0.0233,0.0253,0.0265,0.0262,0.0262,0.0261,0.0255,0.0274,0.0274,0.027,0.027,0.027,0,0,0.0038,0.0045,0.0047,0.0061,0.0073,0.0076,0.0095,0.0106,0.0111,0.0139,0.0154,0.0178,0.0206,0.0226,0.0237,0.024,0.0271,0.0262,0.0261,0.0256,0.0274,0.0275,0.0275,0.027,0.027,0.027,0,0,0.0029,0.004,0.0035,0.0042,0.0056,0.0069,0.007,0.0092,0.0105,0.0122,0.0145,0.0172,0.0202,0.0226,0.0241,0.0251,0.0267,0.0259,0.0249,0.0267,0.0267,0.0267,0.0289,0.0291,0.026,0.026,0.026,0,0.0027,0.0021,0.0037,0.0033,0.0036,0.0062,0.0057,0.0075,0.0102,0.0113,0.0122,0.0172,0.0201,0.0228,0.0236,0.025,0.0261,0.0247,0.0265,0.0266,0.0266,0.0289,0.0291,0.026,0.026,0.026,0.026,0,0.0011,0.0007,0.0005,0.0004,0.0012,0.0013,0.0034,0.0047,0.0066,0.0086,0.0115,0.0155,0.0183,0.0202,0.0224,0.0247,0.0255,0.026,0.0263,0.0265,0.0289,0.0292,0.0258,0.0259,0.0259,0.0259,0,0,0.0004,-0.0006,-0.0007,-0.0021,-0.0005,-0.0006,0.0008,0.0025,0.0027,0.0066,0.0072,0.0129,0.0152,0.0171,0.0206,0.023,0.0257,0.0247,0.0249,0.0263,0.0298,0.0288,0.0291,0.0262,0.0263,0.0263,0.0314,0,-0.0014,-0.004,-0.0033,-0.0054,-0.0067,-0.0043,-0.0038,-0.0018,0.0007,0.0021,0.0074,0.0092,0.0139,0.015,0.0186,0.0234,0.0263,0.0243,0.0298,0.03,0.0286,0.0293,0.0264,0.0317,0.0318,0.0318,0.0319,0,-0.0031,-0.005,-0.0076,-0.0098,-0.0101,-0.0106,-0.01,-0.0091,-0.0055,-0.0036,0.0001,0.0035,0.0087,0.0117,0.0205,0.0188,0.0242,0.0282,0.0285,0.0282,0.0296,0.0314,0.0325,0.0324,0.0324,0.0323,0.0323,0,-0.0052,-0.0079,-0.0106,-0.0111,-0.0126,-0.0131,-0.0133,-0.0107,-0.0109,-0.0074,-0.0078,-0.0008,0.0017,0.0092,0.0192,0.0193,0.0282,0.0291,0.0336,0.0337,0.0337,0.0336,0.0348,0.0348,0.0348,0.0348,0.0348,0,-0.0072,-0.0095,-0.0123,-0.0139,-0.0179,-0.0168,-0.0195,-0.0181,-0.0168,-0.0181,-0.0114,-0.0107,0.001,0.0077,0.0171,0.0265,0.0268,0.0333,0.0347,0.033,0.0328,0.034,0.0339,0.035,0.0349,0.0349,0.0349,0,-0.0084,-0.0101,-0.0143,-0.0176,-0.0192,-0.0218,-0.0251,-0.0269,-0.0246,-0.0262,-0.0258,-0.0181,-0.0089,0.0032,0.0159,0.0228,0.0323,0.0359,0.0336,0.0348,0.0372,0.0369,0.0401,0.0401,0.0401,0.0401,0.0401,0,-0.009,-0.0111,-0.0176,-0.0218,-0.0236,-0.0278,-0.0311,-0.0307,-0.0325,-0.0308,-0.032,-0.0238,-0.0174,0.0002,0.0135,0.0305,0.0333,0.0377,0.0375,0.0366,0.0376,0.0373,0.037,0.0401,0.0401,0.0401,0.0401,0,-0.0103,-0.0127,-0.0164,-0.0249,-0.0302,-0.0368,-0.0409,-0.0435,-0.0428,-0.0415,-0.037,-0.0273,-0.0168,-0.0009,0.0129,0.0252,0.0342,0.0378,0.0379,0.0377,0.0367,0.0376,0.0373,0.0401,0.0401,0.0401,0.0401,0,-0.0109,-0.0145,-0.0199,-0.0271,-0.0355,-0.0434,-0.046,-0.0477,-0.0486,-0.0456,-0.0438,-0.0309,-0.0221,-0.0037,0.0087,0.021,0.0236,0.0267,0.0274,0.0275,0.0226,0.0194,0.0185,0,0,0,0,0,-0.0107,-0.0146,-0.022,-0.031,-0.0398,-0.0442,-0.0514,-0.0529,-0.053,-0.0505,-0.0468,-0.0363,-0.0172,-0.0082,0.0037,0.0079,0.0249,0.022,0.0284,0.0402,0.0402,0.0365,0,0,0,0,0,0,-0.0111,-0.0167,-0.021,-0.0322,-0.0391,-0.0484,-0.0536,-0.0545,-0.0525,-0.0502,-0.0393,-0.0331,-0.0137,-0.0224,0.0048,0.0084,0.0137,0.0319,0.0321,0.0402,0.0402,0.0402,0.0364,0,0,0,0,0]}]]